User: anonymous   Login
Location: Tucson
(32.2217°N, 110.9265°W)
Time: 07:49:01
(UTC-07:00)
Language:

Vanguard 2 Rocket - Orbit

View from above orbital plane
View from above orbital plane
View from above satellite
View from above satellite

Ground track
Ground track

The orbit data is extracted from the following two-line orbital elements,

1 00012U 59001B   21297.71331569  .00000311  00000-0  17938-3 0  9990
2 00012  32.8992  61.5023 1663309 154.7523 214.4655 11.44406749336605
Epoch (UTC): 24 October 2021 17:07:10
Eccentricity: 0.1663309
inclination: 32.8992°
perigee height: 556 km
apogee height: 3323 km
right ascension of ascending node: 61.5023°
argument of perigee: 154.7523°
revolutions per day: 11.44406749
mean anomaly at epoch: 214.4655°
orbit number at epoch: 33660

The dashed part of the orbit path shows where the satellite is in the earth's shadow,  

DLR